Location: Finney State Fishing Lake and Wildlife Area
(38.1834°N, 100.3310°W)
Time: 11:13:49
(UTC+00:00)

X-37B - Visible Passes

Search period start: 28 November 2022 00:00
Search period end: 08 December 2022 00:00
Orbit: 277 x 277 km, 45.0° (Epoch: 01 November)

Date Brightness Start Highest point End Pass type
(mag) Time Alt. Az. Time Alt. Az. Time Alt. Az.
05 Dec 2.6 00:59:40 10° SSW 01:00:20 14° S 01:00:20 14° S visible
06 Dec 1.8 00:59:51 10° SW 01:01:14 26° SSW 01:01:14 26° SSW visible
07 Dec 1.3 01:00:23 10° WSW 01:02:05 39° WSW 01:02:05 39° WSW visible
